Content
SEND FEEDBACK

Daily
Averages
Monthly
Summary
United States of America

ASHEVILLE, NORTH CAROLINA


Home > North America > United States > North Carolina
Elevation: 2240 feet     Latitude: 35 36N     Longitude: 082 32W

WEATHER
 
SELECT A DAY
Number of Records: 226,879;   Date Range: 1/1/95 - 9/21/14
 
SHARE

PRINT THIS DATA

[ ← Previous Day ]
WEATHER ALMANAC - AUGUST 14, 2013
[ Next Day → ]
[ °C ]   °F
Weather ElementAverageHighLow
Temperature68.7 °F77 °F (2:54 pm)64 °F (7:54 am)
Dewpoint59.4 °F64.9 °F (1:54 am)55 °F (3:54 pm)
Humidity73.3 %94 % (2:25 am)48 % (3:54 pm)
Barometer29.99 in30.13 in (11:07 pm)29.91 in (2:54 am)
Wind Speed7.2 mph15 mph (12:54 pm)
Wind Gust18.4 mph (3:54 pm)
Weather ElementAverage
Visibility9.9 mi
Wind DirectionW (265 °)

Weather ElementTotal
Precipitation0.02 in
Cooling Degree Days5.5 (Base 65)
Growing Degree Days20.5 (Base 50)
Averaged from 26 records on August 14, 2013
WEATHER CONDITIONS BREAKOUT
WIND DIRECTION BREAKOUT
WEATHER BY HOUR - AUGUST 14, 2013
[ °C ]   °F
Local TimeTemperatureDewpointHumidityBarometerVisibilityWind DirectionWind SpeedGust SpeedPrecipitationEventsConditions
1:54 AM66.9 °F64.9 °F93 %29.93 in10.0 miNNW (340°)3.5 mphMostly Cloudy
2:25 AM66.2 °F64.4 °F94 %30.00 in10.0 miNNW (340°)5.8 mphOvercast
2:43 AM68.0 °F64.4 °F88 %29.99 in10.0 miCalmScattered Clouds
2:54 AM68.0 °F64.0 °F87 %29.91 in10.0 miCalmPartly Cloudy
3:54 AM66.9 °F63.0 °F87 %29.91 in10.0 miNorth (350°)4.6 mphClear
4:54 AM66.0 °F62.1 °F87 %29.92 in10.0 miNNW (340°)4.6 mphClear
5:54 AM64.9 °F61.0 °F87 %29.93 in10.0 miNorth (350°)5.8 mphClear
6:54 AM64.9 °F60.1 °F84 %29.96 in10.0 miNNE (20°)4.6 mphClear
7:54 AM64.0 °F60.1 °F87 %29.98 in10.0 miNorth (350°)8.1 mphClear
8:54 AM66.9 °F59.0 °F76 %29.99 in10.0 miNorth (350°)12.7 mphClear
9:54 AM68.0 °F59.0 °F73 %29.99 in10.0 miNNW (340°)13.8 mphClear
10:54 AM69.1 °F60.1 °F73 %30.01 in10.0 miNorth (360°)10.4 mphClear
11:54 AM73.0 °F59.0 °F61 %30.00 in10.0 miNorth (350°)11.5 mphClear
12:54 PM73.9 °F57.0 °F55 %30.00 in10.0 miNNW (330°)15.0 mphClear
1:54 PM73.9 °F57.9 °F57 %29.99 in10.0 miNNW (340°)12.7 mphClear
2:54 PM77.0 °F57.0 °F50 %29.98 in10.0 miNNW (330°)11.5 mph17.3 mphPartly Cloudy
3:54 PM75.9 °F55.0 °F48 %29.97 in10.0 miNNW (340°)12.7 mph18.4 mphPartly Cloudy
4:54 PM73.0 °F55.9 °F55 %29.98 in10.0 miNNW (330°)11.5 mphOvercast
5:54 PM71.1 °F57.9 °F63 %29.99 in10.0 miNNW (330°)11.5 mphOvercast
6:54 PM70.0 °F57.0 °F63 %30.00 in10.0 miNNW (340°)8.1 mphOvercast
7:54 PM69.1 °F55.9 °F63 %30.02 in10.0 miNorth (350°)10.4 mphPartly Cloudy
8:54 PM66.0 °F57.0 °F73 %30.04 in10.0 miNorth (350°)4.6 mphPartly Cloudy
9:54 PM68.0 °F55.9 °F65 %30.05 in10.0 miNorth (360°)4.6 mphOvercast
10:54 PM66.9 °F57.0 °F70 %30.07 in10.0 miCalm0.00 inRainLight Rain
11:07 PM64.4 °F60.8 °F88 %30.13 in8.0 miCalm0.01 inRainLight Rain
11:54 PM64.9 °F57.9 °F78 %30.08 in10.0 miCalm0.01 inOvercast
Hourly data recorded from KAVL, located miles away from Asheville, North Carolina







STORIES FROM OUR PARTNERS